Location: Föhrste
(51.9628°N, 9.8359°E)
Time: 23:27:01
(UTC+00:00)

Daily predictions for brighter satellites

Satellite Brightness Start Highest point End
(mag) Time Altitude Azimuth Time Altitude Azimuth Time Altitude Azimuth
Cosmos 1626 Rocket 4.0 15:39:58 10° N 15:44:06 40° ENE 15:48:10 10° SE
Cosmos 2084 3.4 15:40:39 10° SW 15:44:52 83° NW 15:49:02 10° NE
IGS 5A 3.7 15:41:47 10° SE 15:45:32 43° ENE 15:49:19 10° N
Cosmos 2227 Rocket 3.0 15:41:19 10° NNW 15:46:14 29° NE 15:51:08 10° ESE
Cosmos 1892 Rocket 4.0 15:43:59 10° NNW 15:48:26 69° W 15:52:51 10° S
NOSS 2-2 (D) 4.1 15:48:16 10° S 15:51:05 25° SE 15:53:40 10° ENE
Cosmos 2369 Rocket 3.1 15:46:11 10° WSW 15:51:34 44° NW 15:57:02 10° NNE
Cosmos 2084 Rocket 3.7 15:47:58 10° NW 15:52:02 44° NNE 15:56:04 10° ESE
Cosmos 1943 Rocket 4.2 15:49:19 10° NW 15:52:19 14° NNW 15:55:19 10° N
Cosmos 724 4.4 15:47:29 10° NW 15:53:34 63° NE 15:59:27 10° SE
Thor Agena Rocket 3.7 15:49:24 10° SE 15:54:27 52° ENE 15:59:27 10° N
BlueWalker 3 3.0 15:52:05 10° WNW 15:55:34 45° SSW 15:59:03 10° SE
Cosmos 1356 Rocket 3.3 15:55:04 10° S 15:59:06 70° E 16:03:11 10° NNE
Meteor 1-28 Rocket 3.6 15:56:05 10° NNE 15:59:13 35° E 16:02:19 10° SSE
Cosmos 2026 Rocket 4.3 15:54:15 10° NNW 16:00:27 74° W 16:06:44 10° S
Cosmos 2278 Rocket 4.3 15:58:53 10° NW 16:01:57 15° NNW 16:05:01 10° NNE
Cosmos 1544 Rocket 4.1 15:59:58 10° SSE 16:04:04 40° E 16:08:14 10° NNE
Cosmos 1484 Rocket 2.5 16:01:14 10° SSE 16:04:45 85° ENE 16:08:17 10° NNW
Cosmos 1697 Rocket 4.1 16:01:56 10° SE 16:05:32 18° E 16:09:00 11° ENE
IRS-1C 4.5 16:00:38 10° SE 16:05:37 43° ENE 16:10:39 10° N
NOSS 2-2 (E) 3.9 16:02:49 10° S 16:05:44 28° SE 16:08:05 12° ENE
Intercosmos 24 3.7 16:04:21 10° N 16:08:25 69° ENE 16:11:56 10° SSE
Cosmos 405 Rocket 2.2 16:05:18 10° NNW 16:08:34 84° ENE 16:11:48 10° SSE
Cosmos 1634 Rocket 4.0 16:04:00 10° S 16:10:11 79° E 16:16:22 10° NNE
Okean 1-7 Rocket 4.3 16:06:48 10° N 16:10:44 30° ENE 16:14:37 10° SE
Lacrosse 5 rocket 1.1 16:09:28 10° WSW 16:13:13 76° NNW 16:16:22 14° ENE
Cosmos 1461 4.3 16:15:13 10° SSE 16:18:05 20° ESE 16:20:09 14° ENE
CENTAUR R/B 2.8 16:12:16 10° SW 16:18:06 72° NW 16:25:22 11° NE
Meteor 1-20 Rocket 4.3 16:14:28 10° N 16:19:49 51° ENE 16:25:07 10° SSE
Cosmos 1455 Rocket 4.1 16:18:18 10° SSW 16:22:28 46° WNW 16:26:42 10° N
Cosmos 1602 Rocket 3.7 16:18:13 10° N 16:22:33 53° ENE 16:26:48 10° SSE
Cosmos 2279 Rocket 4.0 16:18:37 10° S 16:24:47 72° E 16:31:01 10° NNE
IRIDIUM 103 4.4 16:22:37 10° N 16:27:45 53° E 16:32:50 10° SSE
SMAP 3.0 16:26:23 10° SSE 16:31:02 79° ENE 16:35:43 10° NNW
UNK 3.8 16:27:35 10° NNE 16:32:07 56° E 16:36:36 10° S
Cosmos 1656 3.7 16:26:55 10° SSW 16:32:30 68° ESE 16:37:56 11° NE
YAOGAN 1 3.6 16:31:36 10° ESE 16:35:00 24° ENE 16:38:24 10° N
Cosmos 1867 3.5 16:30:18 10° NW 16:35:46 71° NE 16:41:13 10° SE
Cosmos 2228 3.5 16:31:51 10° SSW 16:36:02 61° WNW 16:40:16 10° N
NOSS 2-2 (C) 3.0 16:33:03 10° WSW 16:36:09 59° NW 16:38:05 19° NE
Landsat 7 3.7 16:31:53 10° SSE 16:36:31 70° ENE 16:41:10 10° N
SAR-Lupe-4 3.5 16:33:17 10° SSE 16:36:47 63° ENE 16:40:20 10° N
Cosmos 1486 Rocket 4.1 16:32:27 10° S 16:37:33 60° ESE 16:42:24 12° NNE
NOSS 7 (H) 4.0 16:35:46 10° NW 16:38:40 59° NE 16:41:17 13° ESE
Cosmos 2297 Rocket 2.4 16:33:56 10° NNW 16:39:37 78° WSW 16:45:17 10° SSE
USA 290 2.4 16:36:26 10° NNW 16:39:42 77° WSW 16:42:57 10° SSE
USA 215 3.5 16:35:28 16° ENE 16:40:46 58° N 16:47:11 10° WNW
Cosmos 2180 Rocket 4.4 16:36:14 10° S 16:42:18 69° E 16:48:27 10° NNE
Resurs 01 Rocket 3.7 16:47:36 11° NNE 16:47:36 11° NNE 16:47:55 10° NNE
Cosmos 1953 Rocket 4.3 16:41:24 10° N 16:45:20 30° ENE 16:49:17 10° SE
SAR-Lupe-1 4.0 16:42:16 10° SSE 16:45:51 70° ENE 16:49:28 10° N
IRIDIUM 106 4.2 16:40:53 10° N 16:46:08 73° E 16:51:20 10° S
Cosmos 1782 2.6 16:42:49 10° SSW 16:46:25 79° W 16:50:02 10° N
ATLAS CENTAUR R/B 2.7 16:43:46 10° WNW 16:46:42 32° WSW 16:49:34 10° S
CZ-4C R/B 3.0 16:40:58 10° NW 16:47:42 87° SW 16:56:13 10° SE
Cosmos 1607 4.2 16:42:45 10° NW 16:48:57 72° SW 16:55:12 10° SSE
Cosmos 1733 4.2 16:47:59 10° NW 16:49:14 18° W 16:50:27 10° SW
CZ-2D R/B 2.6 16:49:14 10° SSE 16:52:22 90° N 16:55:32 10° NNW
Meteor 1-25 Rocket 4.2 16:49:19 10° N 16:55:11 74° ENE 17:00:58 10° SSE
IRS-P3 4.0 16:50:03 10° SSE 16:55:21 75° ENE 17:00:41 10° NNW
Lacrosse 4 Rocket 3.0 16:52:40 10° W 16:56:08 26° NW 16:59:05 13° NNE
Cosmos 1825 Rocket 3.5 16:52:00 10° N 16:56:20 58° ENE 17:00:36 10° SSE
Cosmos 2219 3.8 16:51:05 10° NNW 16:56:23 36° NE 16:59:37 21° E
ARIANE 5 R/B 2.6 16:52:03 10° SSE 16:57:07 80° WSW 17:02:17 10° NNW
Cosmos 2266 Rocket 3.9 16:52:28 10° N 16:58:42 89° E 17:04:46 10° S
Meteor 1-5 Rocket 4.1 16:57:26 10° N 17:02:42 57° ENE 17:08:02 10° SSE
Cosmos 2098 Rocket 3.4 16:58:45 10° SSW 17:02:52 70° WNW 17:07:46 10° N
Cosmos 2151 3.3 16:59:48 10° NNW 17:03:55 64° W 17:08:02 10° S
Cosmos 1743 3.6 17:01:29 10° NNW 17:04:35 41° W 17:07:39 10° SSW
SPOT 1/Viking Rocket 3.5 17:01:55 10° SSE 17:07:03 65° ENE 17:12:14 10° N
Cosmos 1980 Rocket 3.2 17:03:19 10° SSE 17:07:48 25° ESE 17:08:01 25° E
Cosmos 1844 Rocket 4.0 17:06:26 10° NNW 17:10:45 22° NE 17:10:59 22° NE
SL-16 R/B 3.4 17:08:47 10° N 17:14:45 48° WNW 17:20:39 10° SW
Cosmos 2263 Rocket 2.2 17:12:25 10° NNW 17:18:03 62° NE 17:23:09 13° SE
NOSS 3-2 (C) 3.1 17:15:03 10° SSW 17:20:09 72° SE 17:23:02 31° NE
NOSS 3-2 (A) 3.5 17:15:09 10° WSW 17:20:21 62° NW 17:24:05 24° NE
GEOS 3 Rocket 3.8 17:19:36 25° NE 17:22:49 72° NW 17:28:10 10° SW
CZ-4 R/B 4.2 17:19:58 10° SSE 17:23:56 88° W 17:27:55 10° NNW
MOS 1 Rocket 3.9 17:19:34 10° S 17:24:25 65° W 17:29:36 10° NNW
Cosmos 1076 Rocket 3.3 17:21:24 10° N 17:25:42 74° ENE 17:30:00 10° SSE
BREEZE M DEB (TANK) 3.8 17:24:14 10° SW 17:25:20 20° SSW 17:25:20 20° SSW
Cosmos 1933 3.2 17:25:09 10° SSW 17:28:59 80° W 17:30:45 30° N
Cosmos 2227 Rocket 2.4 17:25:09 10° NNW 17:30:48 72° WSW 17:36:25 10° SSE
Cosmos 1538 Rocket 3.9 17:26:29 10° NNW 17:31:46 71° ENE 17:36:28 13° SSE
Cosmos 1606 Rocket 3.5 17:28:03 10° SSW 17:32:28 84° WNW 17:35:24 21° N
PSLV R/B 3.2 17:36:04 50° SE 17:37:01 72° ENE 17:41:04 10° N
Cosmos 2369 Rocket 4.4 17:33:41 10° WNW 17:37:08 16° NNW 17:40:31 10° NNE
CZ-2D R/B 3.4 17:33:36 10° SSE 17:37:49 83° WSW 17:42:00 10° NNW
COSMO-SKYMED 1 3.2 17:39:14 37° SSE 17:39:14 37° SSE 17:41:59 10° S
Cosmos 1943 Rocket 4.4 17:37:44 10° N 17:38:41 10° N 17:39:20 10° NNE
NOSS 2-2 (D) 4.1 17:37:18 10° W 17:40:03 31° NW 17:40:03 31° NW
Cosmos 1244 Rocket 4.4 17:34:40 10° N 17:40:56 62° ENE 17:47:05 10° SSE
SL-19 R/B 4.1 17:36:06 10° SSE 17:41:29 81° ENE 17:47:12 10° NNW
Resurs 1-3 3.4 17:37:31 10° SSE 17:41:50 87° ENE 17:46:10 10° NNW
Cosmos 1503 Rocket 4.3 17:38:01 10° SW 17:43:13 66° WNW 17:46:10 26° NNE
BREEZE-M DEB (TANK) 4.1 17:40:16 10° W 17:43:53 65° S 17:48:33 28° ESE
Meteor 2-20 4.3 17:42:00 10° S 17:48:10 78° E 17:54:10 11° NNE
Cosmos 1697 Rocket 2.6 17:43:05 10° SSW 17:48:42 89° ESE 17:50:45 42° NNE
Cosmos 2278 Rocket 4.4 17:47:05 10° N 17:48:43 11° N 17:49:06 11° N
Lacrosse 5 rocket 2.3 17:47:07 10° WNW 17:49:58 34° NNW 17:49:58 34° NNW
Cosmos 1354 Rocket 4.1 17:46:11 10° SSW 17:51:27 77° WNW 17:53:35 37° NNE
BREEZE-M DEB (TANK) 4.1 17:49:16 10° W 17:53:02 89° N 17:57:03 37° E
Cosmos 1461 3.0 17:50:36 10° SW 17:54:18 63° WNW 17:54:18 63° WNW
Spot 4 Rocket 4.2 17:50:32 10° S 17:55:37 70° WSW 18:00:45 10° NNW
IRAS Rocket 4.2 17:51:17 10° SSE 17:56:46 81° WSW 18:02:17 10° NNW
Cosmos 1726 Rocket 4.0 17:53:10 10° SSW 17:57:47 66° WNW 17:59:49 32° N
SL-08 R/B 4.4 17:52:55 10° N 17:59:15 69° ENE 18:05:33 10° SSE
Cosmos 1655 Rocket 4.4 17:53:45 10° NNW 17:59:56 63° W 18:06:02 10° S
SKYMED 2 3.8 17:59:36 52° NNW 18:00:29 68° WNW 18:04:48 10° SSW
Gbstr 26 Del rocket 4.1 18:00:12 10° SW 18:02:39 32° SSW 18:02:39 32° SSW
Meteor 2-10 4.2 18:01:58 10° NNW 18:07:17 73° W 18:12:45 10° S
CENTAUR R/B 3.7 18:03:54 10° W 18:09:55 37° NNW 18:12:27 30° NNE
Meteor 2-20 Rocket 4.3 18:04:03 10° S 18:10:17 81° E 18:12:30 42° NNE
YAOGAN 1 3.4 18:06:29 10° S 18:10:36 48° W 18:14:46 10° NNW
Cosmos 923 Rocket 4.5 18:08:48 10° NNW 18:12:38 48° N 18:12:38 48° N
USA 281 4.1 18:17:15 33° NNE 18:17:15 33° NNE 18:21:44 10° NNW
Cosmos 2082 3.6 18:11:07 10° NNW 18:16:52 88° ENE 18:17:04 84° SE
Meteor 1-26 Rocket 4.4 18:13:52 10° S 18:18:03 55° S 18:18:03 55° S
USA 238 DEB 3.5 18:14:15 10° SSW 18:19:57 64° SE 18:19:57 64° SE
USA 238 3.5 18:14:20 10° SSW 18:20:02 63° SSE 18:20:02 63° SSE
Resurs 01 Rocket 4.1 18:25:00 13° NNW 18:25:00 13° NNW 18:25:31 10° NNW
USA 215 3.1 18:22:49 69° ENE 18:23:31 76° NNE 18:30:04 10° WNW
Cosmos 2219 3.8 18:35:11 10° NW 18:40:46 55° WSW 18:41:35 50° SW
Cosmos 1980 Rocket 2.9 18:45:39 10° SW 18:49:48 48° WSW 18:49:48 48° WSW
Cosmos 1844 Rocket 4.1 18:49:56 10° NNW 18:52:37 29° NNW 18:52:37 29° NNW
Cosmos 2263 Rocket 4.0 18:56:51 10° NW 19:01:36 28° WSW 19:04:58 16° SSW
CENTAUR R/B 4.4 19:55:44 10° NW 19:59:34 29° NNW 19:59:34 29° NNW
